Flag for Mexico Weather past 2 weeks in Merida, Yucatán, Mexico

Now
64 °F

Broken clouds.


Feels Like: 64 °F
Forecast: 61 / 78 °F
Wind: 5 mph from Southwest

Location: Aerop. Internacional Merida - Yuc

Current Time: Jan 26, 2015 at 8:35:00 AM

Latest Report: Jan 26, 2015 at 7:49 AM


Visibility: 7 mi

Pressure: 30.17 "Hg

Humidity: 78%

Dew point: 57 °F

Location of MeridaLocation

Historic Weather in Merida — Graph

°F

Merida temperature yesterday

Maximum temperature yesterday: 79 °F (at 2:46 PM)
Minimum temperature yesterday: 55 °F (at 5:47 AM)
Average temperature yesterday: 66 °F

Past Weeks' High & Low Weather Summary

 TemperatureHumidityPressure
High91 °F (Jan 23, 2:52 PM)100% (Jan 13, 2:45 AM)30.21 "Hg (Jan 13, 2:45 AM)
Low55 °F (Jan 25, 5:47 AM)43% (Jan 22, 4:42 PM)29.87 "Hg (Jan 23, 2:52 PM)
Average73 °F80%30.06 "Hg
* Reported Jan 11 6:46 AM — Jan 26 6:45 AM, Merida, Weather by CustomWeather, © 2014

Note: Actual official high and low records may vary slightly from our data, if they occured in-between our weather recording intervals... More about our weather records

Advertising

Merida weather history for previous 24 hours

 ConditionsComfort  
Time TempWeatherWind HumidityBarometerVisibility
6:45 AM
Jan 26
61 °FBroken clouds.5 mph83%30.15 "Hg7 mi
5:47 AM59 °FPassing clouds.3 mph88%30.15 "Hg7 mi
4:46 AM59 °FClear.6 mph88%30.13 "Hg7 mi
3:41 AM57 °FClear.5 mph94%30.13 "Hg7 mi
2:48 AM57 °FClear.6 mph94%30.16 "Hg7 mi
1:41 AM59 °FClear.No wind88%30.14 "Hg7 mi
11:42 PM
Jan 25
59 °FClear.3 mph88%30.13 "Hg7 mi
10:50 PM61 °FClear.No wind88%30.14 "Hg7 mi
9:43 PM63 °FClear.3 mph83%30.13 "Hg7 mi
4:45 PM75 °FScattered clouds.6 mph50%30.04 "Hg7 mi
2:46 PM79 °FPartly sunny.7 mph45%30.05 "Hg7 mi
1:46 PM77 °FPartly sunny.No wind47%30.04 "Hg7 mi
12:47 PM77 °FPartly sunny.No wind47%30.05 "Hg7 mi
11:47 AM77 °FPartly sunny.No wind47%30.10 "Hg7 mi
10:45 AM75 °FPartly sunny.5 mph50%30.11 "Hg7 mi
9:44 AM73 °FPartly sunny.5 mph53%30.13 "Hg7 mi
8:48 AM70 °FPartly sunny.No wind64%30.12 "Hg7 mi
Weather by CustomWeather, © 2014

See weather overviewHow to use our weather pages